TimeCST,TemperatureF,Dew PointF,Humidity,Sea Level PressureIn,VisibilityMPH,Wind Direction,Wind SpeedMPH,Gust SpeedMPH,PrecipitationIn,Events,Conditions,WindDirDegrees,DateUTC
12:15 AM,69.8,37.4,31,29.74,10.0,SW,6.9,-,N/A,,Clear,220,2013-03-05 06:15:00
12:35 AM,64.4,39.2,40,29.75,10.0,North,4.6,-,N/A,,Clear,10,2013-03-05 06:35:00
12:55 AM,64.4,32.0,30,29.81,10.0,North,12.7,29.9,N/A,,Clear,350,2013-03-05 06:55:00
1:15 AM,66.2,33.8,30,29.87,10.0,North,21.9,25.3,N/A,,Clear,350,2013-03-05 07:15:00
1:55 AM,53.6,39.2,58,29.96,10.0,North,20.7,36.8,N/A,,Clear,350,2013-03-05 07:55:00
2:15 AM,51.8,39.2,62,29.98,10.0,North,21.9,31.1,N/A,,Unknown,350,2013-03-05 08:15:00
2:35 AM,51.8,37.4,58,30.02,10.0,NNW,25.3,35.7,N/A,,Unknown,340,2013-03-05 08:35:00
2:55 AM,50.0,35.6,58,30.04,10.0,North,20.7,39.1,N/A,,Unknown,350,2013-03-05 08:55:00
3:15 AM,48.2,35.6,62,30.06,10.0,North,19.6,25.3,N/A,,Clear,360,2013-03-05 09:15:00
3:35 AM,48.2,35.6,62,30.07,10.0,North,26.5,32.2,N/A,,Unknown,350,2013-03-05 09:35:00
3:55 AM,48.2,33.8,58,30.09,10.0,North,20.7,25.3,N/A,,Clear,350,2013-03-05 09:55:00
4:15 AM,48.2,33.8,58,30.11,10.0,North,17.3,27.6,N/A,,Clear,360,2013-03-05 10:15:00
4:35 AM,48.2,33.8,58,30.12,10.0,North,24.2,33.4,N/A,,Clear,350,2013-03-05 10:35:00
4:55 AM,48.2,33.8,58,30.15,10.0,North,23.0,35.7,N/A,,Unknown,360,2013-03-05 10:55:00
5:15 AM,48.2,32.0,54,30.17,10.0,North,16.1,28.8,N/A,,Clear,10,2013-03-05 11:15:00
5:35 AM,48.2,32.0,54,30.19,10.0,North,13.8,25.3,N/A,,Clear,10,2013-03-05 11:35:00
5:55 AM,46.4,32.0,57,30.20,10.0,North,13.8,18.4,N/A,,Clear,360,2013-03-05 11:55:00
6:15 AM,46.4,32.0,57,30.21,10.0,North,13.8,18.4,N/A,,Clear,360,2013-03-05 12:15:00
7:15 AM,46.4,32.0,57,30.27,10.0,North,15.0,20.7,N/A,,Clear,360,2013-03-05 13:15:00
7:35 AM,46.4,32.0,57,30.28,10.0,North,15.0,-,N/A,,Clear,360,2013-03-05 13:35:00
7:55 AM,46.4,30.2,53,30.29,10.0,North,13.8,19.6,N/A,,Clear,360,2013-03-05 13:55:00
8:15 AM,46.4,28.4,50,30.30,10.0,North,16.1,24.2,N/A,,Clear,360,2013-03-05 14:15:00
8:35 AM,48.2,24.8,40,30.32,10.0,North,15.0,23.0,N/A,,Clear,360,2013-03-05 14:35:00
8:55 AM,48.2,23.0,37,30.32,10.0,North,16.1,26.5,N/A,,Clear,360,2013-03-05 14:55:00
9:15 AM,50.0,23.0,35,30.32,10.0,North,17.3,26.5,N/A,,Clear,360,2013-03-05 15:15:00
9:35 AM,50.0,21.2,32,30.33,10.0,North,17.3,25.3,N/A,,Clear,360,2013-03-05 15:35:00
9:55 AM,51.8,19.4,28,30.33,10.0,North,26.5,33.4,N/A,,Unknown,360,2013-03-05 15:55:00
10:15 AM,53.6,17.6,24,30.33,10.0,North,19.6,31.1,N/A,,Unknown,360,2013-03-05 16:15:00
10:35 AM,53.6,14.0,21,30.33,10.0,North,20.7,31.1,N/A,,Clear,360,2013-03-05 16:35:00
10:55 AM,55.4,12.2,18,30.34,10.0,North,16.1,34.5,N/A,,Clear,360,2013-03-05 16:55:00
11:15 AM,55.4,14.0,20,30.34,10.0,North,18.4,31.1,N/A,,Clear,10,2013-03-05 17:15:00
11:35 AM,55.4,10.4,17,30.33,10.0,North,24.2,31.1,N/A,,Unknown,360,2013-03-05 17:35:00
11:55 AM,57.2,12.2,17,30.33,10.0,North,19.6,27.6,N/A,,Unknown,350,2013-03-05 17:55:00
12:15 PM,57.2,12.2,17,30.34,10.0,North,21.9,31.1,N/A,,Clear,350,2013-03-05 18:15:00
12:35 PM,57.2,8.6,14,30.33,10.0,North,18.4,27.6,N/A,,Clear,350,2013-03-05 18:35:00
12:55 PM,57.2,10.4,16,30.33,10.0,North,12.7,23.0,N/A,,Clear,10,2013-03-05 18:55:00
1:15 PM,59.0,12.2,16,30.32,10.0,North,18.4,25.3,N/A,,Clear,360,2013-03-05 19:15:00
1:35 PM,59.0,6.8,13,30.32,10.0,North,18.4,28.8,N/A,,Clear,350,2013-03-05 19:35:00
1:55 PM,60.8,8.6,13,30.31,10.0,North,11.5,24.2,N/A,,Clear,360,2013-03-05 19:55:00
2:15 PM,60.8,8.6,13,30.31,10.0,North,15.0,24.2,N/A,,Clear,350,2013-03-05 20:15:00
2:35 PM,60.8,8.6,13,30.30,10.0,North,19.6,25.3,N/A,,Clear,10,2013-03-05 20:35:00
2:55 PM,60.8,8.6,13,30.31,10.0,NNW,15.0,25.3,N/A,,Clear,340,2013-03-05 20:55:00
3:15 PM,60.8,8.6,13,30.31,10.0,North,11.5,24.2,N/A,,Clear,360,2013-03-05 21:15:00
3:35 PM,60.8,8.6,13,30.31,10.0,North,12.7,23.0,N/A,,Clear,10,2013-03-05 21:35:00
3:55 PM,60.8,8.6,13,30.31,10.0,NNW,15.0,21.9,N/A,,Clear,340,2013-03-05 21:55:00
4:15 PM,60.8,5.0,11,30.31,10.0,NNE,11.5,19.6,N/A,,Clear,30,2013-03-05 22:15:00
4:35 PM,60.8,8.6,13,30.31,10.0,North,13.8,-,N/A,,Clear,360,2013-03-05 22:35:00
4:55 PM,60.8,8.6,13,30.32,10.0,North,13.8,19.6,N/A,,Clear,360,2013-03-05 22:55:00
5:15 PM,59.0,10.4,15,30.32,10.0,North,15.0,-,N/A,,Clear,10,2013-03-05 23:15:00
5:35 PM,57.2,8.6,14,30.33,10.0,North,11.5,-,N/A,,Clear,360,2013-03-05 23:35:00
5:55 PM,57.2,10.4,16,30.33,10.0,North,10.4,-,N/A,,Clear,360,2013-03-05 23:55:00
6:15 PM,55.4,10.4,17,30.34,10.0,North,9.2,-,N/A,,Clear,10,2013-03-06 00:15:00
6:35 PM,53.6,12.2,19,30.35,10.0,North,5.8,-,N/A,,Clear,10,2013-03-06 00:35:00
6:55 PM,51.8,12.2,21,30.35,10.0,North,6.9,-,N/A,,Clear,360,2013-03-06 00:55:00
7:15 PM,51.8,12.2,21,30.35,10.0,NNE,3.5,-,N/A,,Clear,20,2013-03-06 01:15:00
7:35 PM,50.0,14.0,24,30.36,10.0,North,4.6,-,N/A,,Clear,360,2013-03-06 01:35:00
7:55 PM,48.2,14.0,25,30.36,10.0,NNW,3.5,-,N/A,,Clear,340,2013-03-06 01:55:00
8:15 PM,46.4,14.0,27,30.37,10.0,North,3.5,-,N/A,,Clear,360,2013-03-06 02:15:00
8:35 PM,46.4,14.0,27,30.37,10.0,North,3.5,-,N/A,,Clear,10,2013-03-06 02:35:00
8:55 PM,44.6,14.0,29,30.37,10.0,Calm,Calm,-,N/A,,Clear,0,2013-03-06 02:55:00
9:15 PM,41.0,14.0,33,30.37,10.0,Calm,Calm,-,N/A,,Clear,0,2013-03-06 03:15:00
9:35 PM,39.2,14.0,36,30.38,10.0,Calm,Calm,-,N/A,,Clear,0,2013-03-06 03:35:00
9:55 PM,39.2,14.0,36,30.39,10.0,West,3.5,-,N/A,,Clear,260,2013-03-06 03:55:00
10:15 PM,39.2,15.8,39,30.40,10.0,NNW,4.6,-,N/A,,Clear,330,2013-03-06 04:15:00
10:35 PM,39.2,15.8,39,30.40,10.0,NNW,3.5,-,N/A,,Clear,330,2013-03-06 04:35:00
10:55 PM,41.0,15.8,36,30.40,10.0,Calm,Calm,-,N/A,,Clear,0,2013-03-06 04:55:00
11:15 PM,39.2,15.8,39,30.40,10.0,Calm,Calm,-,N/A,,Clear,0,2013-03-06 05:15:00
11:35 PM,37.4,15.8,41,30.40,10.0,NNW,4.6,-,N/A,,Clear,340,2013-03-06 05:35:00
11:55 PM,37.4,15.8,41,30.40,10.0,NNW,5.8,-,N/A,,Clear,340,2013-03-06 05:55:00